When you browse on this site, cookies collect data to enhance your experience and personalize the content and advertising you see.
Visit our Privacy Policy to learn more. By continuing to use the site, you agree to this use of cookies and data.
  • en Suisse
  • Liste des pays
  • À 7 jours
  • Température de l'eau
  • Carte satellitaire
  • Carte météo
  • Widgets météo
  • user-avatar
    Se connecter

    Météo par heure à Malanje

    Ce jour, 23 Janvier, Mercredi

    Heure Température Précipitation Vent Pression Humidité
    00:00 +19°C° 1.2 mm 2 m/s 665 mmHg 97%
    01:00 +19°C° 0 mm 2 m/s 665 mmHg 99%
    02:00 +19°C° 0.6 mm 2 m/s 665 mmHg 98%
    03:00 +19°C° 0.6 mm 2 m/s 665 mmHg 98%
    04:00 +19°C° 0.6 mm 2 m/s 665 mmHg 98%
    05:00 +19°C° 0.1 mm 2 m/s 665 mmHg 98%
    06:00 +18°C° 0.1 mm 2 m/s 665 mmHg 97%
    07:00 +18°C° 0 mm 2 m/s 666 mmHg 96%
    08:00 +19°C° 0 mm 2 m/s 666 mmHg 94%
    09:00 +20°C° 0 mm 2 m/s 666 mmHg 91%
    10:00 +21°C° 0 mm 2 m/s 666 mmHg 88%
    11:00 +23°C° 0.1 mm 2 m/s 666 mmHg 83%
    12:00 +24°C° 0.1 mm 2 m/s 666 mmHg 78%
    13:00 +26°C° 0.1 mm 2 m/s 666 mmHg 73%
    14:00 +26°C° 0.7 mm 2 m/s 665 mmHg 78%
    15:00 +25°C° 0.7 mm 2 m/s 664 mmHg 82%
    16:00 +25°C° 0.7 mm 2 m/s 664 mmHg 86%
    17:00 +24°C° 0.5 mm 2 m/s 664 mmHg 89%
    18:00 +22°C° 0.5 mm 1 m/s 664 mmHg 93%
    19:00 +21°C° 0.5 mm 1 m/s 664 mmHg 96%
    20:00 +21°C° 0.1 mm 1 m/s 664 mmHg 97%
    21:00 +20°C° 0.1 mm 1 m/s 665 mmHg 97%
    22:00 +20°C° 0.1 mm 1 m/s 665 mmHg 98%
    23:00 +20°C° 0 mm 1 m/s 665 mmHg 98%

    Demain, 24 Janvier, Jeudi

    Heure Température Précipitation Vent Pression Humidité
    00:00 +20°C° 0 mm 1 m/s 665 mmHg 98%
    01:00 +20°C° 0 mm 1 m/s 665 mmHg 98%
    02:00 +19°C° 0 mm 2 m/s 665 mmHg 98%
    03:00 +18°C° 0 mm 2 m/s 664 mmHg 99%
    04:00 +18°C° 0 mm 2 m/s 664 mmHg 99%
    05:00 +18°C° 0 mm 2 m/s 664 mmHg 98%
    06:00 +18°C° 0 mm 2 m/s 665 mmHg 98%
    07:00 +19°C° 0 mm 3 m/s 665 mmHg 97%
    08:00 +19°C° 0 mm 2 m/s 665 mmHg 96%
    09:00 +20°C° 0 mm 2 m/s 666 mmHg 94%
    10:00 +20°C° 0 mm 2 m/s 666 mmHg 92%
    11:00 +23°C° 0 mm 2 m/s 665 mmHg 85%
    12:00 +24°C° 0 mm 2 m/s 665 mmHg 79%
    13:00 +26°C° 0 mm 2 m/s 665 mmHg 72%
    14:00 +26°C° 0.3 mm 2 m/s 664 mmHg 73%
    15:00 +26°C° 0.3 mm 2 m/s 664 mmHg 75%
    16:00 +26°C° 0.3 mm 2 m/s 663 mmHg 76%
    17:00 +25°C° 0.7 mm 2 m/s 663 mmHg 82%
    18:00 +23°C° 0.7 mm 2 m/s 663 mmHg 89%
    19:00 +22°C° 0.7 mm 1 m/s 663 mmHg 95%
    20:00 +21°C° 1.3 mm 1 m/s 664 mmHg 96%
    21:00 +21°C° 1.3 mm 1 m/s 664 mmHg 96%
    22:00 +21°C° 1.3 mm 1 m/s 665 mmHg 97%
    23:00 +20°C° 0.4 mm 1 m/s 665 mmHg 97%

    Après-demain, 25 Janvier, Vendredi

    Heure Température Précipitation Vent Pression Humidité
    00:00 +20°C° 0.4 mm 1 m/s 664 mmHg 98%
    01:00 +20°C° 0.4 mm 1 m/s 664 mmHg 98%
    02:00 +20°C° 0.3 mm 1 m/s 664 mmHg 98%
    03:00 +20°C° 0.3 mm 1 m/s 664 mmHg 99%
    04:00 +20°C° 0.3 mm 1 m/s 664 mmHg 99%
    05:00 +20°C° 0.1 mm 1 m/s 664 mmHg 98%
    06:00 +20°C° 0.1 mm 1 m/s 665 mmHg 98%
    07:00 +20°C° 0.1 mm 1 m/s 665 mmHg 98%
    08:00 +21°C° 0.1 mm 1 m/s 666 mmHg 95%
    09:00 +22°C° 0.1 mm 1 m/s 666 mmHg 93%
    10:00 +23°C° 0.1 mm 1 m/s 667 mmHg 90%
    11:00 +24°C° 0 mm 1 m/s 666 mmHg 84%
    12:00 +25°C° 0 mm 1 m/s 666 mmHg 78%
    13:00 +27°C° 0 mm 1 m/s 665 mmHg 72%
    14:00 +27°C° 0.4 mm 1 m/s 665 mmHg 75%
    15:00 +26°C° 0.4 mm 1 m/s 664 mmHg 79%
    16:00 +26°C° 0.4 mm 2 m/s 664 mmHg 83%
    17:00 +25°C° 0.4 mm 1 m/s 664 mmHg 86%
    18:00 +24°C° 0.4 mm 1 m/s 664 mmHg 90%
    19:00 +22°C° 0.4 mm 1 m/s 664 mmHg 93%
    20:00 +22°C° 0.7 mm 1 m/s 665 mmHg 93%
    21:00 +20°C° 0.7 mm 0 m/s 665 mmHg 93%
    22:00 +19°C° 0.7 mm 0 m/s 666 mmHg 92%
    23:00 +19°C° 0.3 mm 0 m/s 666 mmHg 93%

    26 Janvier, Samedi

    Heure Température Précipitation Vent Pression Humidité
    00:00 +19°C° 0.3 mm 0 m/s 665 mmHg 94%
    01:00 +18°C° 0.3 mm 0 m/s 665 mmHg 95%
    02:00 +18°C° 0.3 mm 0 m/s 665 mmHg 96%
    03:00 +18°C° 0.3 mm 0 m/s 665 mmHg 97%
    04:00 +18°C° 0.3 mm 0 m/s 665 mmHg 98%
    05:00 +18°C° 0 mm 0 m/s 665 mmHg 98%
    06:00 +18°C° 0 mm 0 m/s 666 mmHg 97%
    07:00 +19°C° 0 mm 0 m/s 666 mmHg 97%
    08:00 +20°C° 0.3 mm 0 m/s 667 mmHg 95%
    09:00 +23°C° 0.3 mm 1 m/s 667 mmHg 92%
    10:00 +24°C° 0.3 mm 1 m/s 668 mmHg 90%
    11:00 +25°C° 0.5 mm 1 m/s 667 mmHg 85%
    12:00 +25°C° 0.5 mm 1 m/s 667 mmHg 81%
    13:00 +26°C° 0.5 mm 2 m/s 666 mmHg 77%
    14:00 +25°C° 0.3 mm 1 m/s 666 mmHg 79%
    15:00 +25°C° 0.3 mm 1 m/s 666 mmHg 80%
    16:00 +25°C° 0.3 mm 1 m/s 665 mmHg 82%
    17:00 +24°C° 0.1 mm 1 m/s 665 mmHg 85%
    18:00 +23°C° 0.1 mm 1 m/s 665 mmHg 87%
    19:00 +22°C° 0.1 mm 1 m/s 666 mmHg 90%
    20:00 +21°C° 0 mm 1 m/s 666 mmHg 91%
    21:00 +21°C° 0 mm 1 m/s 666 mmHg 91%
    22:00 +21°C° 0 mm 1 m/s 667 mmHg 91%
    23:00 +20°C° 0 mm 1 m/s 666 mmHg 93%

    27 Janvier, Dimanche

    Heure Température Précipitation Vent Pression Humidité
    00:00 +20°C° 0 mm 1 m/s 666 mmHg 94%
    01:00 +19°C° 0 mm 1 m/s 665 mmHg 96%
    02:00 +19°C° 0 mm 1 m/s 665 mmHg 96%
    03:00 +19°C° 0 mm 1 m/s 664 mmHg 97%
    04:00 +16°C° 0 mm 0 m/s 664 mmHg 97%
    05:00 +17°C° 0 mm 0 m/s 664 mmHg 96%
    06:00 +18°C° 0 mm 0 m/s 665 mmHg 95%
    07:00 +18°C° 0 mm 0 m/s 666 mmHg 94%
    08:00 +22°C° 0 mm 1 m/s 666 mmHg 85%
    09:00 +25°C° 0 mm 1 m/s 667 mmHg 77%
    10:00 +27°C° 0 mm 1 m/s 667 mmHg 68%
    11:00 +28°C° 0 mm 1 m/s 667 mmHg 64%
    12:00 +29°C° 0 mm 2 m/s 666 mmHg 60%
    13:00 +30°C° 0 mm 2 m/s 666 mmHg 56%
    14:00 +29°C° 0.2 mm 2 m/s 665 mmHg 60%
    15:00 +29°C° 0.2 mm 2 m/s 665 mmHg 64%
    16:00 +28°C° 0.2 mm 2 m/s 664 mmHg 68%
    17:00 +26°C° 0.5 mm 2 m/s 664 mmHg 76%
    18:00 +24°C° 0.5 mm 1 m/s 664 mmHg 83%
    19:00 +22°C° 0.5 mm 1 m/s 664 mmHg 91%
    20:00 +22°C° 0.1 mm 1 m/s 665 mmHg 92%
    21:00 +21°C° 0.1 mm 1 m/s 665 mmHg 93%
    22:00 +21°C° 0.1 mm 1 m/s 665 mmHg 95%
    23:00 +20°C° 0 mm 1 m/s 665 mmHg 95%

    28 Janvier, Lundi

    Heure Température Précipitation Vent Pression Humidité
    00:00 +20°C° 0 mm 1 m/s 665 mmHg 96%
    01:00 +20°C° 0 mm 1 m/s 664 mmHg 97%
    02:00 +20°C° 0 mm 1 m/s 664 mmHg 97%
    03:00 +20°C° 0 mm 1 m/s 664 mmHg 98%
    04:00 +20°C° 0 mm 1 m/s 664 mmHg 99%
    05:00 +20°C° 0 mm 1 m/s 664 mmHg 98%
    06:00 +20°C° 0 mm 2 m/s 665 mmHg 97%
    07:00 +20°C° 0 mm 2 m/s 665 mmHg 97%
    08:00 +23°C° 0 mm 2 m/s 666 mmHg 90%
    09:00 +24°C° 0 mm 2 m/s 666 mmHg 82%
    10:00 +26°C° 0 mm 2 m/s 667 mmHg 75%
    11:00 +27°C° 0 mm 2 m/s 666 mmHg 69%
    12:00 +29°C° 0 mm 2 m/s 666 mmHg 62%
    13:00 +30°C° 0 mm 2 m/s 665 mmHg 56%
    14:00 +30°C° 0 mm 2 m/s 665 mmHg 58%
    15:00 +29°C° 0 mm 2 m/s 664 mmHg 59%
    16:00 +29°C° 0 mm 2 m/s 664 mmHg 61%
    17:00 +27°C° 0 mm 2 m/s 664 mmHg 69%
    18:00 +25°C° 0 mm 2 m/s 664 mmHg 76%
    19:00 +23°C° 0 mm 1 m/s 664 mmHg 83%
    20:00 +23°C° 0 mm 1 m/s 664 mmHg 85%
    21:00 +22°C° 0 mm 1 m/s 664 mmHg 87%
    22:00 +21°C° 0 mm 1 m/s 664 mmHg 88%
    23:00 +21°C° 0 mm 1 m/s 664 mmHg 90%
    Voir plus